Погода в Теслугове

Украина / Ровненская область     50°18′53″N   25°17′55″E
темп.,
°C
ветер,
м/с
пор.,
м/с
влажн.,
%
обл.,
%
осадки,
мм/ч
давл.,
гПа
погр.,
м
13 мая, чт
чт1300:00+8вюв411784 0.0 1010281
03:00+6вюв410832 0.0 1009219
06:00+6вюв411866 0.0 1007251
09:00+12юв697214 0.0 1005644
12:00+14ююв6769100 0.0 10041147
15:00+12юв3784100 0.1 1003334
18:00+13ююв2285100 0.1 100252
21:00+11ю4795100 7.2 1002202
14 мая, пт
пт1400:00+10ююв61294100 0.2 1003345
03:00+9ююв4109621 0.2 1003269
06:00+9ююв35968 0.0 100391
09:00+13ю4781100 0.0 1003321
12:00+17ююз566610 0.6 10041236
15:00+17юз567194 2.0 1004991
18:00+15зюз797713 1.3 1005907
21:00+10юз49874 1.3 1006253
15 мая, сб
сб1500:00+11юз51090100 0.1 1007528
03:00+11зюз51195100 0.4 1007611
06:00+11з61197100 1.4 1008660
09:00+10з51095100 2.4 1010470
12:00+14з5779100 0.1 1011940
15:00+15зсз567085 0.1 10111039
18:00+16зсз346763 0.0 1011903
21:00+12вюв22773 0.0 101110
16 мая, вс
вс1600:00+10юв33855 0.0 101124
03:00+10вюв3489100 0.0 101160
06:00+10вюв3793100 0.1 1011133
09:00+15юв597876 0.1 1010429
12:00+19ююв5765100 0.0 10091137
15:00+21ю6760100 0.2 10081479
18:00+17юз3681100 3.0 1007264
21:00+13з2396100 6.0 100787
17 мая, пн
пн1700:00+13зюз1197100 4.5 100820
03:00+12зюз2696100 5.2 1009261
06:00+11з489757 0.2 1009435
09:00+13зсз458529 0.2 1010552
12:00+17сз336311 0.1 10101331
15:00+19зсз23530 0.1 10091508
18:00+19ссз21524 0.0 10081488
21:00+14всв116762 0.0 100711